Location: ??????
(38.0677°N, 22.9870°E)
Time: 11:55:51
(UTC+00:00)

CZ-2C R/B - Pass Details

Date: 23 May 2024
Orbit: 784 x 868 km, 98.3° (Epoch: 18 June)

Event Time Altitude Azimuth Distance (km) Brightness Sun altitude
Exits shadow 00:47:48 46° 178° (S) 1,046 2.8 -22.4°
Maximum altitude 00:49:22 80° 257° (WSW) 800 2.4 -22.2°
Drops below altitude 10° 00:54:33 10° 345° (NNW) 2,350 5.5 -21.6°
Sets 00:56:53 0° 346° (NNW) 3,287 6.3 -21.3°
